Погода Кривой Рог

Погода Кривой Рог : погода сейчас, прогноз погоды и архив. Всё, что Вы хотите узнать о погоде Кривой Рог!

Поиск расширенной информации на нашем сайте:

Другие новости

Новости СМИ2

Главная страница сайта

Новости сайта

03.07.2017

Напоминаем, что на нашем специализированном сайте Метеоцентр.Азия вы можете получить высокодетализированные автоматические прогнозы погоды по пунктам России, СНГ и мира в авиационном формате (включающие направление и скорость ветра, видимость, явления погоды, количество и форму облачности, нижнюю и верхнюю границу облачности).

Рекомендуем: статья полностью

Погода Кривой Рог - сегодня

Время (UTC), дата Ветер
(°,м/с) 
Видим.   Явления Облачность Т
(°С)
Тd
(°С)
f(%) Тe
(°С)
Pmin
(гПа)
dP
(гПа)
Po
(мм)
O2
(г/м3)
Тmin Tmax R s Состояние
почвы
21 17.04.18 230 (ЮЗ) 10 км    3/0 верхняя 
[Ci fib]
+11 -0.1 46 +11  1021  0.2  755  292           
00 18.04.18 240 (ЮЗ) 10 км    3/0 верхняя 
[Ci fib]
+10.6 +1.5 53 +10  1020.8  -0.2  754  292           
03 18.04.18 250 (З) 10 км    10/0 средняя 
[Ac und]
+11.5 +3 56 +11  1020.2  -0.6  754  291           
06 18.04.18 290 (З) 10 км    10/0 средняя 
[Ac und]
+14.4 +5.5 55 +14  1020.2  0.2  754  288  +10.6  +1.7       
09 18.04.18 330 (СЗ) 10 км  слаб. ливневой дождь  10/6 900 м кучево-дожд., средняя 
[Cb calv|Ac und]
+16 +12 77 +20  1020.3  0.2  754  285           
12 18.04.18 320 (СЗ) 10 км  в посл. час ливневой дождь  10/10 900 м 
[Sc]
+15 +11.5 80 +17  1020.1  -0.3  754  286           
15 18.04.18 350 (С) 10 км    3/0 средняя 
[Ac und]
+20 +3.3 33 +20  1018.1  -1.7  753  282           
18 18.04.18 330 (СЗ) 10 км    8/0 средняя 
[Ac und]
+14.7 +1.6 41 +15  1019.2  0.8  753  288    +20  0.6     
21 18.04.18 290 (З) 10 км    ясно 
+10.4 +1.3 53 +11  1018.7  -0.7  753  292           
00 19.04.18 310 (СЗ) 10 км    ясно 
+8.7 +1.7 61 +8  1017.9  -0.9  752  293           
03 19.04.18 300 (СЗ) 10 км    8/0 средняя 
[Ac und]
+9.6 +2 59 +8  1015.6  -2.2  751  292           
06 19.04.18 290 (З) 10 км    10/0 средняя 
[Ac und]
+13.5 +5.9 60 +12  1013.5  -1.9  749  287  +8.1         
09 19.04.18 310 (СЗ) 10 км    10/0 средняя 
[Ac und]
+14.5 +3.5 48 +13  1011.5  -1.9  748  286           
12 19.04.18 320 (СЗ) 11  10 км    10/0 средняя 
[Ac und]
+15.7 +3.6 44 +14  1009.7  -1.7  746  284           
15 19.04.18 310 (СЗ) 11  10 км    8/0 средняя 
[Ac trans]
+17.1 +4.2 42 +16  1008.6  -1  746  282           
18 19.04.18 350 (С) 10 км  слаб. ливневой дождь  10/6 600 м кучево-дожд., средняя 
[Cb calv|Ac und]
+9.7 +6.5 80 +8  1010.8  1.8  747  290    +17.1  0.3     
21 19.04.18 340 (С) 10 км  {ливн. осадки}  10/5 600 м средняя 
[Sc|Ac und]
+9.1 +5.8 80 +7  1010.2  -0.7  746  290           
00 20.04.18 350 (С) 10 км  {ливн. осадки}  10/10 720 м 
[Sc]
+8.6 +5 78 +6  1010.9  0.7  747  291           
03 20.04.18 340 (С) 10 км    8/0 средняя 
[Ac trans]
+7.3 +4.3 81 +5  1011.7  0.7  748  293           
06 20.04.18 350 (С) 11  10 км    6/0 средняя 
[Ac trans]
+9.8 +4.2 68 +7  1012.6  748  290  +7.3    0.3     
09 20.04.18 360 (С) 11  10 км    ясно 
+16 +2.5 40 +15  1012.9  0.6  749  285           
12 20.04.18 350 (С) 10  10 км    6/6 1000 м 
[Cu hum]
+17.6 -0.2 30 +17  1013.8  749  284           
15 20.04.18 350 (С) 10 км    4/4 1200 м 
[Cu hum]
+17.1 -0.1 31 +16  1014.7  0.9  750  284           
18 20.04.18 350 (С) 10 км    ясно 
+11.6 -1.2 41 +11  1017.3  2.2  752  291    +17.9       
21 20.04.18 350 (С) 10 км    ясно 
+8.6 -1.3 50 +8  1018.1  0.7  752  294           
Время (UTC), дата Ветер
(°,м/с) 
Видим.   Явления Облачность Т
(°С)
Тd
(°С)
f(%) Тe
(°С)
Pmin
(гПа)
dP
(гПа)
Po
(мм)
O2
(г/м3)
Тmin Tmax R s Состояние
почвы

Для получения пояснительной информации подведите курсор к названию столбца.

ПОГОДА Кривой Рог - архив

Всё, что Вы хотите узнать о погоде Кривой Рог - удобно и подробно!

Выберите нужную дату (начиная с 1 января 2015* года) и нажмите кнопку "Найти".
Будут отображены архивные сводки погоды по пункту Кривой Рог, начиная с указанной даты.


Отображать данные в формате CSV (для использования в таблицах Excel)


Внимание! Наш архив погоды предназначен исключительно для личного некоммерческого использования в познавательных целях. Если Вам необходимы официальные справки о состоянии погоды (для производственных, юридических, коммерческих и т.п. целей), обращайтесь в органы Росгидромета.

*Примечание: данная дата относится к архиву по метеостанциям СССР (Россия, СНГ, Балтия).
Архив по метеостанциям Зарубежной Европы и Азии (кроме Китая) хранится 10 дней, по другим регионам земного шара (Китай, Африка, Америка, Австралия, Океания) - 1 день.

Кривой Рог - район местоположения метеостанции


Название, широта, долгота, высота метеостанции:
Кривой Рог (Лозоватка) 48°ш. 33.2°д. 124 м над ур. моря [Украина]

Дополнительная информация

В oтличие oт бoльшинства пoгoдных сайтoв мы публикуем пoдрoбную метеoинфoрмацию в детальнoм прoфессиoнальнoм фoрмате.

Характеристики температуры и влажнoсти вoздуха измеряются на высoте 2 м в тени вдали oт зданий и деревьев.
Скoрoсть ветра измеряется на высoте 10 м (на урoвне рoста челoвека скoрoсть ветра ниже в 1.5-2 раза). Если метеoстанция нахoдится в гoрoде или в лесу, тo скoрoсть ветра занижена на 2-4 м/с пo сравнению с oткрытым местoм. Скoрoсть ветра над акватoриями крупных рек и oзёр, а также на вершинах хoлмoв на 2-5 м/с выше, чем в oбычных услoвиях.
Атмoсфернoе давление в разных тoчках местнoсти мoжет значительнo oтличаться oт давления на метеoстанции, в зависимoсти oт услoвий рельефа (при пoдъёме на 10 м давление пoнижается примернo на 1 мм рт.ст.).